STARLINK Q (44249 NORAD) Tracking and Keplerian Element Data

This shows tracking and keplerian element data for the satellite.

Feedback or suggestion? Click here.




ElementValue
Catalog44249
NameSTARLINK Q
Epoch Orbit371
Epoch Day173.89060269
Epoch Year2019
RAAN37.9207
Inclination53.0029
Eccentricity0.0002542
Argument of Perigee134.3433
Mean Anonmoly225.7767
Mean Motion15.12384579
Decay Rate1.5E-06
L11 44249U 19029Q 19173.89060269 .00000150 00000-0 25598-4 0 9994
L22 44249 53.0029 37.9207 0002542 134.3433 225.7767 15.12384579 3718

Live tracking and technical data element details for STARLINK Q (NORAD 44249). STARLINK Q can be tracked NOW for your location showing map with azimuth and elevation plus other details from your city location.

Track the satellite on the map from your city or location and see movement details for azimuth, elevation, latitude, longitude, range, height, and movement on the map or in text.







IsCatalogInMostPopularTable: catalog: 44249, numindb: 21
Update: records affected: 1



GetName: 44249 STARLINK Q

Hit Count: updated at: Sun, 21 Jul 2019 21:52:30 GMT